Probability
0 0 0 0 0 0 0 0 0 0 0 0 0 0 0 0 0 0 0 6 19 23 39 55 61 71 68 58 58 52 52 55 55 48 45 45 39 32 32 32 26 23 23 19 23 16 13 6 3
0 0 0 0 0 0 0 0 0 0 0 0 0 0 0 0 0 3 13 16 19 35 42 52 61 65 61 55 58 58 52 52 52 52 45 45 39 35 32 32 29 23 16 16 13 10 10 6 6
0 0 0 0 0 0 0 0 0 0 0 0 0 0 0 0 3 10 13 19 23 39 42 52 55 65 58 55 55 55 48 45 52 52 48 42 35 35 32 29 26 23 19 16 16 10 10 6 6
0 0 0 0 0 0 0 0 0 0 0 0 0 0 0 3 3 6 16 23 26 39 42 52 55 58 58 55 55 55 48 45 48 45 48 35 35 35 26 26 26 19 16 10 10 10 10 6 3
0 0 0 0 0 0 0 0 0 0 0 0 0 0 3 6 3 10 19 19 29 39 42 52 58 58 55 55 52 55 52 48 45 45 39 35 35 32 26 23 23 16 10 6 10 10 10 6 6
0 0 0 0 0 0 0 0 0 0 0 0 0 3 6 10 10 19 19 23 23 35 35 48 58 58 58 55 55 55 55 48 45 39 23 29 32 26 19 23 23 13 10 6 6 6 6 3 0
0 0 0 0 0 0 0 0 0 0 0 0 0 3 6 10 13 19 19 26 23 35 35 39 39 48 48 52 55 48 48 42 39 39 29 26 26 26 23 23 16 10 10 10 6 0 0 0 0
0 0 0 0 0 0 0 0 0 0 0 0 0 3 10 13 16 19 19 26 26 32 32 35 35 35 35 42 48 45 42 42 42 26 16 10 16 16 16 10 10 6 6 6 0 0 0 0 0
0 0 0 0 0 0 0 0 0 0 0 0 0 0 6 16 19 26 26 23 32 32 32 32 35 35 32 35 32 32 29 26 19 10 10 10 10 10 6 0 3 3 3 0 0 0 0 0 0
0 0 0 0 0 0 0 0 0 0 0 0 3 6 10 19 19 19 23 16 23 29 32 32 35 35 32 35 26 13 16 6 6 6 6 3 3 0 0 0 0 3 0 0 0 0 0 0 0
0 0 0 0 0 0 0 0 0 0 0 0 3 10 16 23 13 16 19 16 13 19 29 32 35 35 29 23 6 6 6 6 6 3 3 0 0 0 0 0 0 0 0 0 0 0 0 0 0
0 0 0 0 0 0 0 0 0 0 0 0 6 10 16 19 13 13 16 16 16 19 23 23 29 29 26 23 10 6 6 3 3 0 0 0 0 0 0 0 0 0 0 0 0 0 0 0 0
0 0 0 0 0 0 0 0 0 0 0 3 10 6 10 16 10 13 13 16 16 16 16 19 19 23 19 13 6 6 3 3 3 0 0 0 0 0 0 0 0 0 0 0 0 0 0 0 0
0 0 0 0 0 0 0 0 0 0 0 10 10 10 13 16 13 13 10 10 10 10 10 10 10 16 13 10 6 6 3 3 0 0 0 0 0 0 0 0 0 0 0 0 0 0 0 0 0
0 0 0 0 0 0 0 0 0 0 0 10 10 10 10 13 16 13 13 10 6 3 10 10 13 13 10 6 6 6 3 3 0 0 0 0 0 0 0 0 0 0 0 0 0 0 0 0 0
0 0 0 0 0 0 0 0 0 0 0 0 3 3 6 6 10 10 10 6 6 10 3 10 10 10 6 6 3 6 3 3 0 0 0 0 0 0 0 0 0 0 0 0 0 0 0 0 0
0 0 0 0 0 0 0 0 0 0 0 0 0 3 3 6 6 10 10 10 10 10 3 6 3 3 6 6 3 6 3 3 0 0 0 0 0 0 0 0 0 0 0 0 0 0 0 0 0
0 0 0 0 0 0 0 0 0 0 0 0 0 0 3 3 6 6 10 6 10 6 3 0 3 3 6 3 3 3 0 0 0 0 0 0 0 0 0 0 0 0 0 0 0 0 0 0 0
0 0 0 0 0 0 0 0 0 0 0 0 0 0 0 3 3 6 6 6 6 6 3 0 0 0 6 3 3 0 0 0 0 0 0 0 0 0 0 0 0 0 0 0 0 0 0 0 0
0 0 0 0 0 0 0 0 0 0 0 0 0 0 0 0 0 3 6 6 6 6 3 3 0 0 3 3 3 0 0 0 0 0 0 0 0 0 0 0 0 0 0 0 0 0 0 0 0
0 0 0 0 0 0 0 0 0 0 0 0 0 0 0 0 0 3 6 6 6 6 6 3 0 0 3 0 0 0 0 0 0 0 0 0 0 0 0 0 0 0 0 0 0 0 0 0 0
0 0 0 0 0 0 0 0 0 0 0 0 0 0 0 0 0 0 6 6 6 6 6 3 0 0 0 0 0 0 0 0 0 0 0 0 0 0 0 0 0 0 0 0 0 0 0 0 0
0 0 0 0 0 0 0 0 0 0 0 0 0 0 0 0 0 0 3 6 6 6 6 3 0 0 0 0 0 0 0 0 0 0 0 0 0 0 0 0 0 0 0 0 0 0 0 0 0
0 0 0 0 0 0 0 0 0 0 0 0 0 0 0 0 0 0 3 3 3 6 6 0 0 0 0 0 0 0 0 0 0 0 0 0 0 0 0 0 0 0 0 0 0 0 0 0 0
0 0 0 0 0 0 0 0 0 0 0 0 0 0 0 0 0 0 0 3 3 3 3 0 0 0 0 0 0 0 0 0 0 0 0 0 0 0 0 0 0 0 0 0 0 0 0 0 0
0 0 0 0 0 0 0 0 0 0 0 0 0 0 0 0 0 0 0 0 0 3 3 0 0 0 0 0 0 0 0 0 0 0 0 0 0 0 0 0 0 0 0 0 0 0 0 0 0
0 0 0 0 0 0 0 0 0 0 0 0 0 0 0 0 0 0 0 0 0 0 0 0 0 0 0 0 0 0 0 0 0 0 0 0 0 0 0 0 0 0 0 0 0 0 0 0 0
0 0 0 0 0 0 0 0 0 0 0 0 0 0 0 0 0 0 0 0 0 0 0 0 0 0 0 0 0 0 0 0 0 0 0 0 0 0 0 0 0 0 0 0 0 0 0 0 0
0 0 0 0 0 0 0 0 0 0 0 0 0 0 0 0 0 0 0 0 0 0 0 0 0 0 0 0 0 0 0 0 0 0 0 0 0 0 0 0 0 0 0 0 0 0 0 0 0
0 0 0 0 0 0 0 0 0 0 0 0 0 0 0 0 0 0 0 0 0 0 0 0 0 0 0 0 0 0 0 0 0 0 0 0 0 0 0 0 0 0 0 0 0 0 0 0 0
Height
5814 5816 5818 5820 5821 5823 5826 5830 5834 5837 5838 5840 5841 5842 5844 5846 5849 5853 5852 5852 5853 5855 5856 5857 5858 5859 5860 5861 5861 5862 5863 5864 5864 5865 5866 5867 5867 5868 5868 5869 5869 5870 5870 5870 5870 5870 5870 5869 5869
5808 5810 5812 5813 5814 5817 5822 5826 5829 5832 5834 5835 5836 5837 5839 5841 5844 5846 5847 5848 5850 5851 5853 5854 5855 5856 5857 5858 5859 5860 5861 5862 5863 5863 5864 5865 5866 5866 5867 5867 5868 5868 5868 5868 5869 5868 5868 5868 5868
5801 5803 5805 5806 5808 5812 5817 5821 5824 5826 5828 5829 5831 5833 5835 5837 5839 5841 5843 5844 5846 5848 5849 5851 5852 5853 5855 5856 5857 5858 5859 5860 5861 5861 5862 5863 5864 5865 5865 5866 5866 5866 5867 5867 5867 5867 5866 5866 5866
5794 5795 5796 5799 5802 5808 5812 5815 5817 5819 5821 5824 5826 5827 5830 5833 5834 5836 5838 5840 5842 5844 5845 5847 5849 5850 5852 5853 5854 5855 5856 5857 5858 5859 5860 5861 5862 5863 5863 5864 5864 5864 5865 5865 5865 5865 5865 5864 5864
5784 5786 5787 5790 5795 5801 5805 5807 5809 5812 5814 5817 5819 5822 5825 5827 5828 5830 5832 5835 5837 5839 5841 5843 5845 5847 5848 5850 5851 5852 5853 5854 5855 5856 5857 5858 5859 5860 5861 5861 5862 5862 5863 5863 5863 5863 5862 5862 5862
5775 5776 5779 5782 5788 5793 5796 5798 5801 5804 5807 5810 5812 5815 5818 5821 5823 5824 5826 5829 5832 5835 5837 5839 5841 5843 5844 5846 5847 5849 5850 5851 5852 5853 5854 5856 5856 5857 5858 5859 5859 5860 5860 5860 5860 5860 5860 5859 5859
5766 5767 5769 5774 5779 5784 5787 5789 5791 5795 5799 5802 5804 5807 5811 5815 5816 5818 5820 5823 5826 5829 5832 5834 5836 5838 5840 5842 5844 5845 5846 5848 5849 5850 5851 5852 5853 5854 5855 5856 5857 5857 5858 5858 5858 5858 5857 5857 5856
5754 5756 5758 5763 5768 5773 5777 5779 5781 5785 5790 5793 5795 5799 5803 5807 5809 5811 5814 5817 5820 5823 5826 5828 5831 5833 5835 5837 5839 5841 5843 5844 5846 5847 5848 5849 5850 5851 5852 5853 5854 5854 5855 5855 5855 5855 5854 5854 5853
5743 5745 5748 5753 5757 5762 5765 5768 5771 5774 5779 5782 5786 5790 5794 5798 5801 5804 5807 5810 5814 5817 5820 5822 5825 5828 5830 5832 5834 5836 5838 5840 5841 5843 5844 5845 5847 5848 5849 5849 5850 5851 5851 5851 5851 5851 5851 5850 5850
5731 5733 5739 5743 5746 5749 5753 5756 5759 5763 5768 5772 5776 5780 5784 5788 5792 5796 5800 5804 5807 5810 5814 5816 5819 5822 5824 5826 5828 5831 5833 5835 5837 5838 5840 5841 5843 5844 5844 5845 5846 5847 5847 5847 5847 5847 5846 5846 5846
5721 5724 5729 5731 5733 5736 5739 5743 5747 5751 5757 5762 5767 5771 5774 5779 5783 5788 5792 5796 5800 5803 5806 5810 5812 5815 5818 5821 5823 5825 5827 5829 5832 5834 5835 5837 5838 5839 5840 5841 5842 5842 5843 5843 5843 5842 5842 5841 5841
5711 5714 5716 5719 5721 5723 5726 5730 5735 5740 5747 5751 5755 5759 5764 5769 5774 5779 5784 5788 5792 5796 5799 5802 5805 5808 5811 5814 5817 5819 5822 5824 5826 5828 5830 5832 5833 5834 5835 5836 5837 5837 5838 5838 5838 5837 5837 5837 5836
5701 5704 5705 5707 5709 5711 5715 5719 5724 5730 5735 5739 5743 5748 5754 5760 5765 5770 5775 5780 5784 5788 5791 5795 5798 5801 5804 5807 5810 5813 5815 5818 5820 5822 5825 5826 5828 5829 5830 5830 5831 5831 5832 5832 5832 5832 5831 5831 5830
5691 5693 5695 5696 5698 5700 5704 5708 5712 5719 5724 5728 5733 5739 5744 5750 5755 5761 5766 5771 5775 5780 5783 5787 5791 5794 5797 5800 5803 5806 5809 5811 5814 5816 5818 5820 5822 5823 5824 5824 5825 5825 5825 5826 5826 5826 5825 5825 5824
5681 5683 5685 5687 5688 5691 5694 5698 5704 5710 5713 5718 5723 5729 5735 5741 5746 5751 5757 5762 5767 5771 5775 5779 5783 5787 5790 5793 5796 5799 5802 5804 5807 5809 5811 5813 5815 5816 5817 5818 5819 5819 5819 5819 5819 5819 5818 5818 5817
5673 5674 5676 5679 5680 5682 5685 5689 5696 5700 5704 5709 5714 5720 5726 5732 5737 5743 5748 5754 5758 5763 5767 5771 5776 5779 5782 5785 5788 5791 5794 5797 5799 5802 5804 5806 5808 5809 5810 5811 5812 5812 5812 5812 5812 5812 5811 5810 5809
5664 5666 5668 5671 5672 5673 5675 5681 5687 5691 5695 5700 5706 5711 5718 5724 5730 5735 5740 5745 5750 5755 5759 5764 5768 5772 5775 5778 5781 5785 5787 5790 5792 5795 5797 5799 5800 5802 5803 5803 5804 5804 5804 5804 5804 5804 5803 5802 5801
5658 5659 5661 5663 5664 5666 5668 5673 5678 5682 5686 5692 5697 5703 5709 5715 5722 5727 5732 5737 5742 5747 5752 5756 5760 5764 5767 5771 5773 5777 5780 5782 5785 5787 5789 5791 5793 5794 5795 5795 5796 5797 5797 5796 5796 5795 5795 5794 5792
5653 5654 5654 5657 5658 5659 5661 5665 5670 5673 5677 5683 5689 5695 5701 5707 5713 5718 5723 5728 5734 5739 5743 5747 5751 5755 5759 5762 5766 5769 5772 5775 5777 5779 5781 5783 5784 5785 5786 5787 5788 5788 5788 5788 5787 5787 5786 5785 5783
5647 5648 5649 5651 5652 5653 5655 5658 5662 5666 5670 5675 5681 5687 5693 5699 5704 5709 5714 5720 5725 5730 5735 5739 5743 5747 5751 5754 5757 5760 5764 5766 5768 5770 5772 5773 5775 5777 5778 5778 5778 5779 5779 5779 5778 5777 5776 5775 5773
5642 5643 5645 5646 5648 5649 5650 5652 5656 5659 5663 5668 5673 5679 5685 5691 5696 5701 5706 5712 5717 5722 5726 5729 5734 5738 5742 5745 5748 5751 5754 5756 5759 5761 5763 5765 5766 5767 5768 5769 5769 5769 5769 5769 5768 5767 5766 5765 5764
5638 5640 5641 5642 5643 5645 5646 5645 5651 5653 5656 5660 5665 5670 5677 5682 5688 5693 5698 5703 5708 5713 5717 5721 5724 5729 5732 5736 5739 5742 5745 5747 5750 5752 5753 5755 5756 5757 5758 5759 5759 5759 5759 5758 5758 5757 5756 5755 5754
5636 5638 5639 5640 5640 5641 5642 5641 5646 5648 5651 5654 5658 5663 5668 5674 5679 5685 5690 5695 5700 5704 5708 5711 5714 5719 5722 5726 5729 5732 5734 5737 5739 5741 5743 5744 5746 5747 5748 5748 5749 5749 5749 5748 5747 5747 5745 5745 5744
5634 5636 5637 5637 5637 5637 5638 5637 5640 5643 5646 5649 5653 5657 5661 5666 5671 5676 5682 5686 5690 5695 5698 5702 5705 5709 5713 5716 5719 5721 5724 5727 5729 5731 5732 5734 5736 5736 5737 5737 5738 5738 5738 5737 5737 5736 5735 5734 5733
5632 5633 5633 5632 5632 5633 5634 5633 5637 5640 5643 5645 5648 5651 5655 5659 5664 5668 5673 5678 5682 5686 5689 5692 5696 5700 5703 5706 5709 5711 5714 5716 5719 5720 5722 5724 5725 5726 5727 5727 5727 5727 5727 5727 5726 5726 5725 5724 5723
5628 5629 5630 5629 5629 5630 5631 5631 5635 5636 5639 5641 5644 5647 5649 5653 5657 5662 5666 5670 5673 5677 5680 5683 5687 5690 5693 5696 5699 5701 5704 5706 5708 5710 5711 5713 5714 5715 5716 5716 5716 5716 5716 5716 5715 5715 5714 5713 5712
5625 5626 5627 5627 5626 5627 5627 5629 5631 5633 5635 5637 5640 5642 5645 5647 5651 5655 5658 5662 5665 5668 5671 5674 5677 5680 5683 5686 5689 5691 5694 5696 5698 5699 5701 5702 5703 5704 5704 5705 5706 5706 5706 5705 5705 5704 5704 5703 5702
5623 5623 5624 5623 5622 5622 5624 5625 5628 5629 5630 5632 5635 5637 5639 5642 5645 5648 5651 5654 5657 5660 5663 5665 5668 5671 5673 5676 5678 5681 5684 5686 5688 5689 5690 5691 5691 5692 5693 5694 5695 5696 5695 5695 5695 5694 5693 5693 5692
5619 5620 5619 5619 5620 5620 5620 5625 5625 5625 5626 5628 5630 5632 5634 5637 5639 5641 5644 5647 5649 5652 5654 5657 5659 5662 5664 5667 5669 5671 5673 5675 5677 5678 5679 5680 5680 5681 5683 5684 5684 5685 5685 5685 5685 5684 5683 5683 5681
5615 5616 5616 5617 5617 5617 5617 5623 5621 5622 5622 5623 5625 5627 5629 5631 5632 5634 5637 5639 5641 5643 5645 5648 5650 5652 5655 5657 5659 5661 5662 5664 5666 5668 5669 5669 5670 5671 5672 5673 5673 5674 5674 5674 5674 5674 5673 5672 5671
Wind_Speed
31 31 32 32 33 33 31 27 25 24 23 23 23 23 22 21 20 18 17 16 16 15 15 13 12 12 11 10 9 9 8 7 7 6 5 5 5 5 5 5 5 5 5 5 5 6 7 7 7
34 34 35 35 36 35 32 28 26 25 26 26 26 25 24 23 22 20 19 18 17 17 17 16 15 14 13 12 11 10 10 9 8 8 7 7 6 6 6 6 6 6 6 6 6 7 8 8 8
36 36 38 38 38 35 32 30 28 27 28 29 29 28 27 26 24 22 21 20 19 19 19 18 17 16 15 14 12 12 11 11 11 10 9 8 7 7 7 7 7 7 7 7 7 8 9 9 10
38 39 41 41 39 35 33 32 31 31 31 31 31 30 29 27 26 25 24 23 21 20 20 19 19 18 17 16 14 13 13 12 12 11 11 10 9 8 8 8 8 8 8 8 9 9 10 10 11
41 42 43 43 40 37 35 35 34 34 33 32 33 32 31 29 28 27 26 25 24 23 21 20 20 20 19 18 16 15 14 14 13 13 13 12 10 10 9 9 9 9 10 10 10 11 11 11 12
43 44 45 44 42 39 38 38 37 36 36 34 34 34 32 31 30 29 28 27 26 25 24 22 22 21 21 20 18 17 16 15 14 15 14 12 11 11 10 10 10 10 11 11 12 12 12 12 13
45 46 46 45 44 42 40 41 41 39 38 37 37 35 33 32 31 30 30 29 28 27 26 25 24 23 22 21 20 19 17 16 15 15 15 14 13 12 12 11 12 12 13 13 13 13 14 14 14
46 47 48 46 45 43 42 42 43 42 40 39 39 38 36 34 33 32 31 31 30 29 28 27 26 25 24 23 22 21 20 18 17 16 16 15 15 14 14 14 14 14 14 14 14 15 15 15 16
45 48 48 46 45 44 43 44 44 44 43 42 41 40 38 37 36 34 33 33 32 30 29 28 27 27 26 25 24 23 22 21 20 19 18 17 17 16 16 16 16 16 16 16 16 16 17 18 17
44 46 45 45 45 45 44 44 45 45 45 44 43 42 40 39 38 37 36 35 34 32 31 30 29 28 27 26 25 25 25 23 22 21 20 20 19 19 19 19 19 18 18 18 18 18 19 20 20
43 44 43 44 45 45 45 45 46 46 46 45 43 42 42 41 41 39 38 37 36 34 33 32 30 30 29 28 27 27 27 25 24 24 23 23 22 21 21 21 21 21 21 21 20 21 22 22 22
43 43 43 43 44 45 45 44 46 46 45 44 44 42 42 42 42 41 40 39 37 36 35 33 32 32 31 30 30 29 28 27 27 26 25 25 24 24 24 24 23 23 23 23 23 23 24 24 25
41 42 42 42 43 44 45 45 45 45 44 44 44 44 43 42 41 41 40 40 39 38 37 36 34 33 33 32 32 31 30 30 29 29 29 28 27 27 27 26 26 25 25 25 26 26 26 26 27
38 39 39 40 42 43 44 44 45 44 44 44 44 44 43 42 42 41 41 41 40 39 38 38 36 35 34 34 34 33 33 33 32 31 31 30 29 29 29 29 28 28 27 27 28 28 28 29 30
36 37 37 37 40 41 43 44 44 43 43 43 43 43 43 43 42 42 42 42 41 40 39 39 38 37 36 35 34 35 35 35 34 33 33 33 32 31 31 31 30 30 30 30 30 31 31 32 32
32 34 35 36 38 40 41 41 42 42 42 42 42 43 43 43 42 42 42 42 42 42 41 41 40 38 37 36 35 35 35 36 36 35 35 34 34 33 33 32 32 32 32 33 33 33 34 34 35
30 31 32 33 35 38 40 39 41 42 42 41 42 43 42 43 42 42 43 43 43 42 41 41 41 40 39 37 36 35 36 37 37 37 37 36 35 34 34 33 34 34 34 35 35 36 36 36 37
28 29 30 31 33 36 38 38 39 40 42 41 41 43 42 42 41 42 44 45 44 43 43 42 41 40 40 39 38 36 37 38 38 38 38 38 38 37 37 36 36 36 37 37 37 38 38 38 39
27 26 27 28 30 33 35 36 37 39 41 41 42 43 43 43 42 42 44 45 45 45 45 44 44 43 41 41 40 39 38 38 38 39 40 40 39 39 40 39 38 38 38 39 40 40 40 41 41
25 25 25 26 27 29 31 32 34 37 39 40 41 43 44 43 43 43 44 44 45 45 45 46 45 44 43 42 42 42 40 40 40 41 41 41 41 41 41 42 41 40 40 40 41 41 42 42 42
23 22 21 21 24 24 26 30 32 33 36 38 39 42 43 43 43 43 44 44 45 45 44 45 45 44 43 43 45 44 43 42 42 43 42 42 43 43 42 43 43 43 42 42 43 42 42 42 42
21 19 18 18 19 21 22 26 28 29 32 35 38 40 41 42 43 43 43 44 45 46 46 46 45 45 44 44 45 46 46 45 44 43 43 44 44 43 43 44 44 45 45 44 44 43 43 43 43
19 18 19 19 19 20 21 24 23 26 29 31 35 38 40 42 43 44 44 44 45 46 46 47 47 46 46 46 46 46 46 47 46 44 45 45 44 44 44 45 45 46 46 46 45 44 45 45 44
18 18 19 20 20 21 20 23 22 23 26 28 31 35 38 40 41 43 43 43 44 46 46 46 47 47 48 47 47 47 46 46 46 45 45 45 45 46 46 47 46 46 46 46 47 46 45 45 45
18 17 19 20 20 21 20 21 21 21 23 26 29 32 36 37 39 41 41 42 42 43 44 45 47 47 47 48 48 47 48 47 47 47 46 46 46 44 44 45 45 46 46 46 46 46 46 45 45
19 18 19 20 21 22 21 22 20 19 20 24 27 29 32 34 36 37 39 40 40 41 42 43 44 45 46 46 46 46 46 47 47 47 46 46 45 46 45 44 44 45 45 44 45 45 45 45 45
19 19 19 20 20 21 22 22 20 20 21 22 25 27 30 33 34 35 37 39 39 40 40 40 41 42 43 44 45 45 45 45 45 46 46 47 47 47 45 45 45 45 44 43 43 44 44 43 43
18 19 20 20 21 22 22 21 20 20 22 23 23 25 28 31 32 34 36 38 39 39 39 39 40 40 41 42 43 43 43 44 44 45 46 46 47 46 45 45 44 45 44 43 43 44 43 43 43
19 19 21 22 22 23 23 21 19 21 22 22 24 24 26 29 31 33 35 37 39 39 39 40 39 40 41 42 43 43 43 44 44 45 46 46 46 46 46 46 44 44 43 43 43 43 43 44 43
20 20 21 22 23 22 23 22 21 21 22 23 24 25 26 28 29 31 33 36 37 38 39 39 40 39 40 43 43 44 44 45 45 45 45 46 46 46 46 46 44 44 44 44 44 43 43 43 43
Wind_Direction
247 248 248 248 248 249 249 249 247 244 245 245 245 246 248 248 248 249 249 247 243 241 241 242 240 239 238 239 241 241 240 239 236 236 243 251 257 264 266 272 279 287 295 301 305 309 315 318 321
249 249 249 249 249 249 249 250 248 245 244 245 246 246 246 247 247 247 248 247 245 242 241 241 239 239 239 241 244 244 242 242 239 239 243 248 255 261 266 271 275 283 289 296 296 300 305 310 314
249 249 250 250 250 250 251 250 249 247 244 244 245 245 246 247 248 247 246 245 244 243 240 239 238 239 239 240 242 244 244 244 242 242 243 245 252 259 265 271 275 279 283 289 292 295 298 303 308
250 250 250 250 251 251 251 251 248 246 245 245 245 244 245 247 247 246 245 243 242 241 241 241 238 238 240 240 241 243 243 244 245 245 244 247 252 256 263 270 272 274 278 282 289 290 295 301 305
250 251 251 252 251 250 250 250 248 247 245 245 245 245 245 246 246 245 244 242 241 240 241 242 240 238 239 241 242 242 243 244 246 247 245 246 250 253 260 266 270 274 278 282 287 291 293 299 303
250 251 252 253 252 251 250 250 249 247 246 245 245 245 245 246 245 244 243 242 241 240 240 241 241 240 239 240 242 242 242 244 246 246 245 245 247 253 258 264 269 275 279 281 285 289 293 296 299
252 253 253 254 253 250 250 250 250 248 247 246 246 245 245 245 243 242 242 241 242 241 240 241 241 241 240 240 241 242 242 241 244 245 244 245 247 251 257 262 268 273 276 278 283 287 291 293 296
253 254 253 253 253 250 250 249 248 247 246 246 246 246 245 244 242 240 240 240 240 241 240 240 241 241 240 239 241 241 241 241 242 244 246 247 248 251 256 261 266 272 275 276 281 286 288 291 294
253 253 253 253 253 251 249 247 246 245 244 244 245 245 244 243 241 239 239 238 239 241 241 240 240 240 241 239 239 240 241 241 241 242 245 248 249 251 256 261 266 271 275 276 279 284 288 289 292
253 254 253 252 252 251 248 246 244 244 243 242 243 243 243 241 240 239 238 238 239 240 240 240 240 241 242 240 238 240 240 241 241 242 244 246 249 253 256 260 265 269 274 275 278 283 286 288 291
254 255 254 251 250 249 246 244 243 242 241 240 240 240 240 240 239 238 238 238 238 239 240 240 240 241 241 241 239 240 240 240 242 243 245 247 250 255 258 261 265 269 273 275 278 281 284 286 289
255 255 254 251 249 247 244 242 241 242 241 240 239 239 239 238 238 237 237 237 237 238 239 239 240 240 241 240 239 240 240 241 243 244 246 250 253 256 259 263 266 269 272 275 278 281 283 285 288
255 254 253 251 248 246 243 241 240 240 240 239 239 238 238 237 239 238 237 237 237 238 238 238 238 239 239 240 240 239 241 242 243 246 248 250 253 256 259 262 265 268 271 274 277 280 282 285 287
254 252 251 251 248 246 243 241 240 238 238 239 239 237 237 236 237 238 237 235 236 237 236 236 237 238 239 240 240 241 241 242 244 246 249 250 253 256 260 262 265 267 269 272 276 279 282 284 286
253 251 250 250 249 246 244 241 240 238 238 238 238 237 236 234 236 236 235 235 235 236 236 236 236 237 239 241 241 242 242 243 245 247 250 251 254 258 262 264 266 268 269 272 275 278 280 283 285
253 251 250 249 249 247 246 242 238 237 237 237 237 235 234 234 235 235 234 233 234 235 236 236 236 238 239 240 242 242 244 245 247 248 250 253 256 259 261 264 266 269 271 273 276 278 281 283 285
254 252 252 251 250 248 246 243 239 238 238 237 237 234 233 233 233 234 233 232 232 233 235 236 237 238 239 240 242 243 245 247 248 249 251 254 257 259 262 265 267 270 273 274 276 279 281 283 285
256 255 254 254 253 249 245 243 241 239 238 236 235 233 232 232 233 234 234 233 232 233 235 237 238 239 240 241 242 243 244 247 249 251 252 255 257 260 263 265 268 271 273 274 276 279 281 283 286
258 257 255 255 253 250 246 243 242 239 238 236 234 231 231 232 232 232 233 234 233 234 235 236 239 239 240 241 242 244 246 247 249 250 253 255 258 261 263 266 268 270 272 275 277 279 282 284 285
255 255 255 254 252 252 249 245 244 241 238 236 234 232 231 232 233 234 233 233 234 235 237 239 239 240 241 242 243 245 247 247 249 251 253 255 257 261 264 265 268 271 273 275 278 280 281 283 283
251 252 251 251 251 254 253 246 243 241 239 237 235 232 231 233 234 236 234 234 234 236 237 238 238 240 242 243 244 245 247 248 250 253 255 257 259 260 262 265 267 270 273 275 277 279 280 281 282
248 248 249 246 250 251 253 251 242 242 242 240 235 234 231 231 233 234 235 235 236 238 239 240 240 241 242 244 245 247 249 251 253 254 257 258 260 261 262 265 268 270 273 275 277 277 279 280 281
250 249 249 248 253 252 252 258 247 243 245 241 237 234 233 233 232 232 235 237 238 239 240 242 242 243 243 244 246 248 250 252 253 254 256 259 260 261 264 266 269 270 272 274 276 278 278 278 279
250 252 251 252 255 254 252 257 252 246 245 241 238 235 235 235 234 233 234 237 239 240 241 242 241 243 245 246 247 249 251 253 254 256 259 259 261 263 264 267 269 270 272 275 275 276 277 278 279
246 251 252 254 254 255 255 257 255 248 244 240 239 237 236 236 235 235 236 238 240 241 242 244 243 245 246 248 249 251 252 254 257 258 261 261 262 264 266 269 270 271 272 273 274 275 277 278 278
250 254 254 255 257 257 259 257 254 250 246 239 238 237 238 237 237 237 237 239 242 244 245 246 246 246 247 248 249 251 253 255 257 259 261 261 262 263 265 267 271 272 272 273 274 275 278 277 277
255 255 257 258 260 261 260 260 257 253 253 245 239 238 241 239 239 239 239 240 241 244 246 248 249 248 248 249 250 253 255 257 258 260 262 264 264 265 266 267 271 273 274 274 273 275 276 277 277
255 255 258 258 262 264 261 260 260 256 254 249 245 244 244 242 242 243 242 242 243 246 248 249 251 250 250 250 251 253 255 257 258 260 262 264 264 265 265 267 270 272 275 276 277 278 278 278 278
254 254 256 258 263 266 263 263 267 262 257 252 250 250 249 246 248 248 246 244 245 247 249 250 252 252 251 252 253 254 255 257 260 262 264 264 264 264 265 266 269 270 272 275 276 277 278 278 279
256 255 258 260 264 265 265 264 266 266 262 257 255 253 252 252 251 251 249 246 246 248 250 252 253 254 254 254 255 255 256 258 260 263 264 265 265 265 266 267 268 269 270 273 275 277 278 279 279